Schneifelwetter: Wetterstation Hallschlag, 537 m . NN
Wetterdaten: Samstag, 25.12.2010
Datum Zeit Temp. A. Feuchte A. Luftdruck Regen Wind Richtung Richtung Sonnenschein Helligkeit T Regen Taupunkt Windchill
25.12.2010 00:00 -7,7 C 97 % 1009 hPa 0,0 l/m 0,0 km/h (0 Bft) N-NO 20 0 min 0 lux 0,00 min -8,1 C -7,7 C
25.12.2010 00:15 -7,7 C 98 % 1009 hPa 0,0 l/m 0,0 km/h (0 Bft) N-NO 20 0 min 0 lux 0,00 min -8,0 C -7,7 C
25.12.2010 00:30 -7,7 C 97 % 1009 hPa 0,0 l/m 0,0 km/h (0 Bft) N-NO 20 0 min 0 lux 0,00 min -8,1 C -7,7 C
25.12.2010 00:45 -7,8 C 97 % 1010 hPa 0,0 l/m 0,0 km/h (0 Bft) N-NO 20 0 min 0 lux 0,00 min -8,2 C -7,8 C
25.12.2010 01:00 -7,8 C 97 % 1010 hPa 0,0 l/m 0,0 km/h (0 Bft) N-NO 20 0 min 0 lux 0,00 min -8,2 C -7,8 C
25.12.2010 01:15 -7,9 C 97 % 1010 hPa 0,0 l/m 0,0 km/h (0 Bft) N-NO 20 0 min 0 lux 0,00 min -8,3 C -7,9 C
25.12.2010 01:30 -7,9 C 97 % 1010 hPa 0,0 l/m 0,0 km/h (0 Bft) N-NO 20 0 min 0 lux 0,00 min -8,3 C -7,9 C
25.12.2010 01:45 -8,0 C 97 % 1010 hPa 0,0 l/m 0,0 km/h (0 Bft) N-NO 20 0 min 0 lux 0,00 min -8,4 C -8,0 C
25.12.2010 02:00 -8,0 C 98 % 1010 hPa 0,0 l/m 0,0 km/h (0 Bft) N-NO 20 0 min 0 lux 0,00 min -8,3 C -8,0 C
25.12.2010 02:15 -8,1 C 98 % 1010 hPa 0,0 l/m 0,0 km/h (0 Bft) N-NO 20 0 min 0 lux 0,00 min -8,4 C -8,1 C
25.12.2010 02:30 -8,1 C 98 % 1010 hPa 0,0 l/m 0,0 km/h (0 Bft) N-NO 20 0 min 0 lux 0,00 min -8,4 C -8,1 C
25.12.2010 02:45 -8,1 C 98 % 1010 hPa 0,0 l/m 0,0 km/h (0 Bft) N-NO 20 0 min 0 lux 0,00 min -8,4 C -8,1 C
25.12.2010 03:00 -8,1 C 98 % 1011 hPa 0,0 l/m 0,0 km/h (0 Bft) N-NO 20 0 min 0 lux 0,00 min -8,4 C -8,1 C
25.12.2010 03:15 -8,1 C 98 % 1011 hPa 0,0 l/m 0,0 km/h (0 Bft) N-NO 20 0 min 0 lux 0,00 min -8,4 C -8,1 C
25.12.2010 03:30 -8,2 C 97 % 1011 hPa 0,0 l/m 0,0 km/h (0 Bft) N-NO 20 0 min 0 lux 0,00 min -8,6 C -8,2 C
25.12.2010 03:45 -8,2 C 97 % 1011 hPa 0,0 l/m 0,0 km/h (0 Bft) N-NO 20 0 min 0 lux 0,00 min -8,6 C -8,2 C
25.12.2010 04:00 -8,2 C 97 % 1011 hPa 0,0 l/m 0,0 km/h (0 Bft) N-NO 20 0 min 0 lux 0,00 min -8,6 C -8,2 C
25.12.2010 04:15 -8,3 C 98 % 1011 hPa 0,0 l/m 0,0 km/h (0 Bft) N-NO 20 0 min 0 lux 0,00 min -8,6 C -8,3 C
25.12.2010 04:30 -8,3 C 97 % 1011 hPa 0,0 l/m 0,0 km/h (0 Bft) N-NO 20 0 min 0 lux 0,00 min -8,7 C -8,3 C
25.12.2010 04:45 -8,4 C 97 % 1012 hPa 0,0 l/m 0,0 km/h (0 Bft) N-NO 20 0 min 0 lux 0,00 min -8,8 C -8,4 C
25.12.2010 05:00 -8,4 C 97 % 1012 hPa 0,0 l/m 0,0 km/h (0 Bft) N-NO 20 0 min 0 lux 0,00 min -8,8 C -8,4 C
25.12.2010 05:15 -8,5 C 97 % 1012 hPa 0,0 l/m 0,0 km/h (0 Bft) N-NO 20 0 min 0 lux 0,00 min -8,9 C -8,5 C
25.12.2010 05:30 -8,6 C 97 % 1012 hPa 0,0 l/m 0,0 km/h (0 Bft) N-NO 20 0 min 0 lux 0,00 min -9,0 C -8,6 C
25.12.2010 05:45 -8,7 C 97 % 1012 hPa 0,0 l/m 0,0 km/h (0 Bft) N-NO 20 0 min 0 lux 0,00 min -9,1 C -8,7 C
25.12.2010 06:00 -8,8 C 97 % 1013 hPa 0,0 l/m 0,0 km/h (0 Bft) N-NO 20 0 min 0 lux 0,00 min -9,2 C -8,8 C
25.12.2010 06:15 -8,8 C 97 % 1013 hPa 0,0 l/m 0,0 km/h (0 Bft) N-NO 20 0 min 0 lux 0,00 min -9,2 C -8,8 C
25.12.2010 06:29 -8,8 C 97 % 1013 hPa 0,0 l/m 0,0 km/h (0 Bft) N-NO 20 0 min 0 lux 0,00 min -9,2 C -8,8 C
25.12.2010 06:44 -8,8 C 97 % 1013 hPa 0,0 l/m 0,0 km/h (0 Bft) N-NO 20 0 min 0 lux 0,00 min -9,2 C -8,8 C
25.12.2010 06:59 -8,8 C 97 % 1013 hPa 0,0 l/m 0,0 km/h (0 Bft) N-NO 20 0 min 0 lux 0,00 min -9,2 C -8,8 C
25.12.2010 07:14 -8,8 C 97 % 1013 hPa 0,0 l/m 0,0 km/h (0 Bft) N-NO 20 0 min 0 lux 0,00 min -9,2 C -8,8 C
25.12.2010 07:29 -9,0 C 97 % 1014 hPa 0,0 l/m 0,0 km/h (0 Bft) N-NO 20 0 min 0 lux 0,00 min -9,4 C -9,0 C
25.12.2010 07:44 -9,1 C 97 % 1014 hPa 0,0 l/m 0,0 km/h (0 Bft) N-NO 20 0 min 0 lux 0,00 min -9,5 C -9,1 C
25.12.2010 07:59 -9,1 C 97 % 1014 hPa 0,0 l/m 0,0 km/h (0 Bft) N-NO 20 0 min 0 lux 0,00 min -9,5 C -9,1 C
25.12.2010 08:14 -9,1 C 97 % 1014 hPa 0,0 l/m 0,0 km/h (0 Bft) N-NO 20 0 min 52 lux 0,00 min -9,5 C -9,1 C
25.12.2010 08:30 -9,1 C 97 % 1014 hPa 0,0 l/m 0,0 km/h (0 Bft) N-NO 20 0 min 183 lux 0,00 min -9,5 C -9,1 C
25.12.2010 08:45 -9,1 C 97 % 1015 hPa 0,0 l/m 0,0 km/h (0 Bft) N-NO 20 0 min 643 lux 0,00 min -9,5 C -9,1 C
25.12.2010 09:00 -9,2 C 97 % 1015 hPa 0,0 l/m 0,0 km/h (0 Bft) N-NO 20 0 min 1,63 klux 0,00 min -9,6 C -9,2 C
25.12.2010 09:15 -9,2 C 97 % 1015 hPa 0,0 l/m 0,0 km/h (0 Bft) N-NO 20 0 min 2,92 klux 0,00 min -9,6 C -9,2 C
25.12.2010 09:30 -9,3 C 96 % 1016 hPa 0,0 l/m 0,0 km/h (0 Bft) N-NO 20 0 min 4,86 klux 0,00 min -9,8 C -9,3 C
25.12.2010 09:45 -9,2 C 96 % 1016 hPa 0,0 l/m 0,0 km/h (0 Bft) N-NO 20 0 min 7,52 klux 0,00 min -9,7 C -9,2 C
25.12.2010 10:00 -9,2 C 96 % 1016 hPa 0,0 l/m 0,0 km/h (0 Bft) N-NO 20 0 min 9,8 klux 0,00 min -9,7 C -9,2 C
25.12.2010 10:15 -9,1 C 96 % 1016 hPa 0,0 l/m 0,0 km/h (0 Bft) N-NO 20 0 min 16,3 klux 0,00 min -9,6 C -9,1 C
25.12.2010 10:30 -8,9 C 95 % 1016 hPa 0,0 l/m 0,0 km/h (0 Bft) N-NO 20 0 min 26,6 klux 0,00 min -9,6 C -8,9 C
25.12.2010 10:45 -8,6 C 95 % 1017 hPa 0,0 l/m 0,0 km/h (0 Bft) N-NO 20 0 min 35,1 klux 0,00 min -9,3 C -8,6 C
25.12.2010 11:00 -8,3 C 94 % 1017 hPa 0,0 l/m 0,0 km/h (0 Bft) N-NO 20 0 min 38,0 klux 0,00 min -9,1 C -8,3 C
25.12.2010 11:15 -8,0 C 92 % 1017 hPa 0,0 l/m 0,0 km/h (0 Bft) N-NO 20 0 min 37,4 klux 0,00 min -9,1 C -8,0 C
25.12.2010 11:30 -8,1 C 91 % 1017 hPa 0,0 l/m 0,0 km/h (0 Bft) N-NO 20 0 min 31,9 klux 0,00 min -9,3 C -8,1 C
25.12.2010 11:45 -8,2 C 91 % 1017 hPa 0,0 l/m 0,0 km/h (0 Bft) N-NO 20 0 min 22,8 klux 0,00 min -9,4 C -8,2 C
25.12.2010 12:00 -8,1 C 90 % 1018 hPa 0,0 l/m 0,0 km/h (0 Bft) N-NO 20 0 min 22,4 klux 0,00 min -9,4 C -8,1 C
25.12.2010 12:15 -8,1 C 90 % 1018 hPa 0,0 l/m 0,0 km/h (0 Bft) N-NO 20 0 min 21,0 klux 0,00 min -9,4 C -8,1 C
25.12.2010 12:30 -8,1 C 89 % 1018 hPa 0,0 l/m 0,0 km/h (0 Bft) N-NO 20 0 min 22,2 klux 0,00 min -9,6 C -8,1 C
25.12.2010 12:45 -8,1 C 89 % 1018 hPa 0,0 l/m 0,0 km/h (0 Bft) N-NO 20 0 min 23,8 klux 0,00 min -9,6 C -8,1 C
25.12.2010 13:00 -8,0 C 88 % 1018 hPa 0,0 l/m 0,0 km/h (0 Bft) N-NO 20 0 min 25,0 klux 0,00 min -9,6 C -8,0 C
25.12.2010 13:15 -7,9 C 87 % 1018 hPa 0,0 l/m 0,0 km/h (0 Bft) N-NO 20 0 min 23,1 klux 0,00 min -9,7 C -7,9 C
25.12.2010 13:30 -7,9 C 86 % 1018 hPa 0,0 l/m 0,0 km/h (0 Bft) N-NO 20 0 min 22,0 klux 0,00 min -9,8 C -7,9 C
25.12.2010 13:44 -8,0 C 87 % 1018 hPa 0,0 l/m 0,0 km/h (0 Bft) N-NO 20 0 min 21,6 klux 0,00 min -9,8 C -8,0 C
25.12.2010 14:00 -7,9 C 87 % 1018 hPa 0,0 l/m 0,0 km/h (0 Bft) N-NO 20 0 min 23,4 klux 0,00 min -9,7 C -7,9 C
25.12.2010 14:15 -7,9 C 87 % 1018 hPa 0,0 l/m 0,0 km/h (0 Bft) N-NO 20 0 min 24,7 klux 0,00 min -9,7 C -7,9 C
25.12.2010 14:30 -8,0 C 88 % 1018 hPa 0,0 l/m 0,0 km/h (0 Bft) N-NO 20 0 min 22,3 klux 0,00 min -9,6 C -8,0 C
25.12.2010 14:45 -8,1 C 88 % 1018 hPa 0,0 l/m 0,0 km/h (0 Bft) N-NO 20 0 min 20,3 klux 0,00 min -9,7 C -8,1 C
25.12.2010 15:00 -8,3 C 88 % 1018 hPa 0,0 l/m 0,0 km/h (0 Bft) N-NO 20 0 min 18,5 klux 0,00 min -9,9 C -8,3 C
25.12.2010 15:15 -8,4 C 88 % 1018 hPa 0,0 l/m 0,0 km/h (0 Bft) N-NO 20 0 min 15,9 klux 0,00 min -10,0 C -8,4 C
25.12.2010 15:29 -8,6 C 88 % 1019 hPa 0,0 l/m 0,0 km/h (0 Bft) N-NO 20 0 min 10,8 klux 0,00 min -10,2 C -8,6 C
25.12.2010 15:45 -8,8 C 89 % 1019 hPa 0,0 l/m 0,0 km/h (0 Bft) N-NO 20 0 min 6,93 klux 0,00 min -10,3 C -8,8 C
25.12.2010 16:00 -9,1 C 90 % 1019 hPa 0,0 l/m 0,0 km/h (0 Bft) N-NO 20 0 min 5,24 klux 0,00 min -10,4 C -9,1 C
25.12.2010 16:15 -9,2 C 90 % 1019 hPa 0,0 l/m 0,0 km/h (0 Bft) N-NO 20 0 min 3,18 klux 0,00 min -10,5 C -9,2 C
25.12.2010 16:30 -9,4 C 91 % 1019 hPa 0,0 l/m 0,0 km/h (0 Bft) N-NO 20 0 min 1,72 klux 0,00 min -10,6 C -9,4 C
25.12.2010 16:45 -9,6 C 91 % 1019 hPa 0,0 l/m 0,0 km/h (0 Bft) N-NO 20 0 min 946 lux 0,00 min -10,8 C -9,6 C
25.12.2010 17:00 -9,9 C 91 % 1019 hPa 0,0 l/m 0,0 km/h (0 Bft) N-NO 20 0 min 356 lux 0,00 min -11,1 C -9,9 C
25.12.2010 17:15 -10,2 C 92 % 1019 hPa 0,0 l/m 0,0 km/h (0 Bft) N-NO 20 0 min 47 lux 0,00 min -11,2 C -10,2 C
25.12.2010 17:30 -10,7 C 92 % 1020 hPa 0,0 l/m 0,0 km/h (0 Bft) N-NO 20 0 min 15 lux 0,00 min -11,7 C -10,7 C
25.12.2010 17:45 -10,9 C 92 % 1020 hPa 0,0 l/m 0,0 km/h (0 Bft) N-NO 20 0 min 0 lux 0,00 min -11,9 C -10,9 C
25.12.2010 18:00 -11,5 C 91 % 1020 hPa 0,0 l/m 0,0 km/h (0 Bft) N-NO 20 0 min 0 lux 0,00 min -12,7 C -11,5 C
25.12.2010 18:15 -11,9 C 92 % 1020 hPa 0,0 l/m 0,0 km/h (0 Bft) N-NO 20 0 min 0 lux 0,00 min -12,9 C -11,9 C
25.12.2010 18:30 -12,3 C 92 % 1020 hPa 0,0 l/m 0,0 km/h (0 Bft) N-NO 20 0 min 0 lux 0,00 min -13,3 C -12,3 C
25.12.2010 18:44 -12,4 C 93 % 1020 hPa 0,0 l/m 0,0 km/h (0 Bft) N-NO 20 0 min 0 lux 0,00 min -13,3 C -12,4 C
25.12.2010 19:00 -12,6 C 92 % 1020 hPa 0,0 l/m 0,0 km/h (0 Bft) N-NO 20 0 min 0 lux 0,00 min -13,6 C -12,6 C
25.12.2010 19:15 -12,8 C 93 % 1021 hPa 0,0 l/m 0,0 km/h (0 Bft) N-NO 20 0 min 0 lux 0,00 min -13,7 C -12,8 C
25.12.2010 19:30 -12,4 C 93 % 1021 hPa 0,0 l/m 0,0 km/h (0 Bft) N-NO 20 0 min 0 lux 0,00 min -13,3 C -12,4 C
25.12.2010 19:45 -12,6 C 93 % 1021 hPa 0,0 l/m 0,0 km/h (0 Bft) N-NO 20 0 min 0 lux 0,00 min -13,5 C -12,6 C
25.12.2010 20:00 -13,1 C 92 % 1021 hPa 0,0 l/m 0,0 km/h (0 Bft) N-NO 20 0 min 0 lux 0,00 min -14,1 C -13,1 C
25.12.2010 20:15 -13,3 C 92 % 1021 hPa 0,0 l/m 0,0 km/h (0 Bft) N-NO 20 0 min 0 lux 0,00 min -14,3 C -13,3 C
25.12.2010 20:29 -13,4 C 93 % 1021 hPa 0,0 l/m 0,0 km/h (0 Bft) N-NO 20 0 min 0 lux 0,00 min -14,3 C -13,4 C
25.12.2010 20:45 -13,1 C 93 % 1021 hPa 0,3 l/m 0,0 km/h (0 Bft) N-NO 20 0 min 0 lux 16,00 min -14,0 C -13,1 C
25.12.2010 21:00 -12,8 C 93 % 1021 hPa 0,0 l/m 0,0 km/h (0 Bft) N-NO 20 0 min 0 lux 0,00 min -13,7 C -12,8 C
25.12.2010 21:15 -12,8 C 93 % 1021 hPa 0,0 l/m 0,0 km/h (0 Bft) N-NO 20 0 min 0 lux 0,00 min -13,7 C -12,8 C
25.12.2010 21:30 -12,8 C 93 % 1022 hPa 0,3 l/m 0,0 km/h (0 Bft) N-NO 20 0 min 0 lux 15,00 min -13,7 C -12,8 C
25.12.2010 21:45 -12,5 C 93 % 1022 hPa 0,0 l/m 0,0 km/h (0 Bft) N-NO 20 0 min 0 lux 0,00 min -13,4 C -12,5 C
25.12.2010 22:00 -12,2 C 94 % 1022 hPa 0,0 l/m 0,0 km/h (0 Bft) N-NO 20 0 min 0 lux 0,00 min -13,0 C -12,2 C
25.12.2010 22:15 -11,8 C 94 % 1021 hPa 0,3 l/m 0,0 km/h (0 Bft) N-NO 20 0 min 0 lux 15,00 min -12,6 C -11,8 C
25.12.2010 22:30 -11,6 C 94 % 1021 hPa 0,0 l/m 0,0 km/h (0 Bft) N-NO 20 0 min 0 lux 0,00 min -12,4 C -11,6 C
25.12.2010 22:45 -11,5 C 94 % 1021 hPa 0,0 l/m 0,0 km/h (0 Bft) N-NO 20 0 min 0 lux 0,00 min -12,3 C -11,5 C
25.12.2010 23:00 -11,3 C 94 % 1021 hPa 0,0 l/m 0,0 km/h (0 Bft) N-NO 20 0 min 0 lux 0,00 min -12,1 C -11,3 C
25.12.2010 23:15 -11,2 C 94 % 1021 hPa 0,0 l/m 0,0 km/h (0 Bft) N-NO 20 0 min 0 lux 0,00 min -12,0 C -11,2 C
25.12.2010 23:30 -11,2 C 94 % 1021 hPa 0,0 l/m 0,0 km/h (0 Bft) N-NO 20 0 min 0 lux 0,00 min -12,0 C -11,2 C
25.12.2010 23:44 -11,2 C 94 % 1022 hPa 0,0 l/m 0,0 km/h (0 Bft) N-NO 20 0 min 0 lux 0,00 min -12,0 C -11,2 C
_ Min-Zeit 20:29 13:30 00:00 - 00:00 - - - - - 20:15 20:29
Minimum _ -13,4 C 86 % 1009 hPa - 0,0 km/h (0 Bft) - - - - - -14,3 C -13,4 C
_ Max-Zeit 00:00 00:15 21:30 20:45 00:00 - - 00:00 11:00 20:45 00:15 00:00
Maximum _ -7,7 C 98 % 1022 hPa 0,3 l/m 0,0 km/h
N-NO (0 Bft)
- - 0 min 38,0 klux 16,00 min -8,0 C -7,7 C
Durchschnitt _ -9,5 C 94 % 1016 hPa #0,9 l/m 0,0 km/h (0 Bft) - - - #0 min. 5,95 klux #46 min. -10,3 C -9,5 C